Location: Saint Mary
(48.7436°N, 113.4291°W)
Time: 20:53:00
(UTC+00:00)

Tiangong - Pass Details

Date: 07 December 2025
Orbit: 378 x 393 km, 41.5° (Epoch: 18 January)

Event Time Altitude Azimuth Distance (km) Brightness Sun altitude
Exits shadow 13:03:22 17° 188° (S) 1,081 0.1 -20.4°
Drops below altitude 10° 13:05:18 10° 151° (SSE) 1,427 1.3 -20.0°
Sets 13:07:51 0° 130° (SE) 2,287 2.9 -19.6°
